GFSWCAN_700_rhum_051.txt.gz
RH
100 96 88 100 100 81 6 4 2 2 2 2 2 4 20 26 26 27 30 35 40 43 47 56 58 54 66 82 89 96 93 87 96 97 94 89 92 93 92 92 92 90 90 86 91 90 78 78 85 93 87 85 81 73
100 97 98 100 100 84 5 3 2 2 2 2 3 9 26 31 31 29 29 35 39 41 46 52 53 66 60 40 60 85 88 76 88 92 87 82 84 88 85 81 90 91 90 93 89 78 78 89 90 92 96 92 80 67
100 100 97 100 99 15 4 2 2 2 3 4 4 15 30 34 35 34 34 33 44 44 52 54 52 57 65 71 46 38 49 64 69 66 80 83 77 67 81 82 84 86 88 95 87 81 78 87 90 90 85 79 73 78
100 100 100 100 56 30 4 2 2 3 4 4 8 23 30 33 35 34 42 44 44 41 60 70 69 74 73 70 70 73 56 37 34 57 74 75 69 52 51 60 68 66 60 56 49 52 48 45 44 41 34 47 75 95
100 96 100 100 94 10 2 2 3 4 3 3 10 18 26 34 34 36 44 45 50 48 52 58 59 60 66 72 75 72 74 77 41 34 39 38 39 60 68 64 52 53 60 66 69 77 80 61 40 45 36 29 30 79
99 100 100 99 59 8 2 3 4 3 2 3 4 8 16 28 31 31 32 39 41 50 56 53 46 37 50 53 69 74 75 81 85 40 43 46 50 72 85 72 72 78 83 92 90 85 81 63 58 65 51 34 22 30
100 100 100 99 44 3 3 4 3 3 2 2 3 3 6 10 8 7 4 8 16 14 31 30 25 12 16 32 54 61 67 74 86 87 75 67 66 74 83 97 96 96 96 87 86 88 75 74 64 66 66 62 52 21
100 100 100 99 26 4 4 4 4 3 2 2 2 3 3 3 3 3 3 4 4 4 5 6 8 10 11 12 21 45 64 70 83 92 95 93 94 97 95 94 95 90 72 76 81 85 84 75 75 74 66 70 66 65
100 99 100 71 24 5 5 4 4 3 3 2 2 3 4 4 4 4 4 4 4 4 5 6 7 8 8 8 18 44 68 82 84 86 87 87 82 81 60 56 57 55 54 55 61 76 81 78 82 84 82 78 70 69
99 99 99 68 10 5 5 4 4 4 4 4 4 4 5 5 5 5 5 5 5 6 6 6 7 10 9 8 11 36 59 74 93 94 90 53 55 56 57 63 62 47 31 26 27 39 50 66 72 78 86 83 76 66
100 99 96 17 5 5 5 5 5 6 6 6 6 7 6 7 6 6 5 6 6 6 7 9 10 11 12 12 13 16 65 76 85 85 88 67 36 24 21 20 21 22 26 23 20 23 33 44 66 77 87 98 87 78
100 98 34 8 5 4 5 5 5 6 7 8 8 10 11 11 11 8 6 8 9 7 11 14 14 15 15 14 14 22 65 78 87 91 94 66 46 19 18 17 18 16 15 14 14 14 15 22 40 63 85 91 97 93
99 75 11 10 5 5 5 6 8 10 11 10 12 13 15 15 11 8 8 13 16 20 24 24 24 24 19 19 17 21 48 93 87 98 89 71 63 37 30 26 25 24 19 16 15 15 15 15 16 33 63 84 95 95
78 31 51 15 6 6 8 14 11 21 15 14 17 20 20 18 14 10 12 16 19 27 29 29 30 29 30 25 21 25 65 86 100 100 91 81 75 54 46 34 36 34 28 23 20 18 17 17 17 16 23 62 88 97
79 60 11 7 7 10 10 15 23 18 27 22 25 26 25 22 23 24 26 28 30 32 33 32 32 32 34 29 25 30 40 81 100 98 92 92 83 65 46 39 41 35 30 29 29 26 24 22 19 16 18 23 67 92
84 19 10 10 10 10 23 28 25 41 24 27 27 26 21 19 19 23 25 28 30 33 35 36 37 38 34 29 31 24 34 34 57 63 65 60 54 50 49 48 41 36 33 29 26 28 24 21 19 17 17 27 44 82
22 11 12 12 13 24 29 23 32 28 26 22 22 20 18 19 19 19 22 26 29 32 36 37 42 40 39 39 37 34 35 44 45 53 54 53 54 55 51 44 38 33 29 31 39 54 53 51 49 33 30 46 66 81
12 11 12 19 36 42 24 25 25 28 27 22 21 19 17 17 18 18 22 27 27 33 38 42 45 45 46 45 42 44 48 50 52 54 56 57 54 46 39 36 35 36 42 70 76 62 51 61 73 71 65 69 82 92
16 16 39 55 46 26 24 25 27 26 23 21 20 18 16 17 18 18 21 23 33 40 45 45 45 40 40 43 52 54 55 49 47 51 53 43 36 38 42 42 47 71 85 52 66 63 58 41 54 90 85 82 91 95
23 43 53 43 28 27 25 24 24 22 23 21 17 16 17 19 19 19 20 27 38 45 47 47 42 46 52 53 49 47 51 54 46 31 26 30 46 53 51 56 75 92 96 96 96 96 66 42 29 51 98 94 92 96
22 32 29 32 29 24 21 22 24 24 19 16 16 17 19 21 21 21 23 36 40 38 40 44 46 45 45 45 50 48 38 34 35 38 35 31 56 69 72 79 91 92 92 93 94 84 48 20 19 26 48 97 96 96
27 29 42 50 21 21 22 23 20 18 16 16 19 22 25 25 22 22 30 36 40 40 39 31 25 20 22 35 35 34 33 33 31 34 60 66 64 70 75 81 83 83 94 75 73 49 22 17 16 20 27 82 96 96
25 27 24 22 28 24 23 20 19 23 26 25 23 27 29 24 22 26 38 39 46 36 25 16 15 20 28 34 35 32 29 29 33 46 61 68 65 70 74 67 63 56 43 30 26 21 18 20 18 20 24 55 94 96
26 32 24 24 21 23 25 24 26 36 34 28 29 32 29 24 29 41 47 45 31 20 15 15 17 24 31 34 30 37 46 39 41 40 44 43 38 39 42 42 36 30 27 27 25 22 42 40 25 24 25 27 81 97
30 30 26 24 23 25 26 26 28 29 30 32 33 27 26 36 50 55 49 33 22 20 22 27 33 36 30 26 33 38 47 50 39 29 29 34 31 28 24 22 22 21 22 21 20 29 52 47 27 25 23 28 81 96
28 29 27 30 30 28 28 28 33 36 36 32 30 36 42 56 60 50 40 26 23 26 30 31 30 29 23 26 21 23 29 33 30 22 20 22 26 30 28 20 15 15 15 17 29 43 49 38 22 18 19 44 92 97
33 35 36 40 41 42 42 41 40 39 33 34 40 52 60 60 49 41 30 29 29 30 29 30 32 32 28 21 19 18 22 22 17 13 14 17 24 33 35 32 24 19 18 30 33 43 38 25 18 18 20 84 94 95
42 46 47 48 51 49 46 43 33 31 34 41 53 60 62 54 44 39 42 52 38 37 36 35 33 38 28 21 20 18 17 14 12 13 14 18 27 32 33 31 29 26 29 33 25 40 44 42 25 19 25 54 91 93
61 58 58 55 54 51 43 39 35 38 51 65 70 71 69 54 45 49 57 53 45 44 42 35 31 35 24 19 17 16 15 16 17 16 14 18 20 28 31 26 20 23 31 33 18 17 19 34 49 39 23 21 23 54
68 65 64 64 58 46 44 49 60 67 66 58 51 43 42 41 47 54 54 54 53 48 40 36 34 32 24 17 16 17 21 22 21 22 24 22 32 30 28 26 22 21 31 34 19 18 16 16 15 25 42 45 53 74
67 66 60 51 47 57 66 67 63 55 48 39 37 34 32 38 32 36 40 43 43 38 31 26 24 23 22 22 23 21 16 18 25 36 37 30 32 31 25 25 22 22 31 34 24 25 24 19 16 14 14 18 36 56
51 58 69 73 66 68 60 44 41 40 38 36 37 38 36 30 24 23 29 42 43 36 32 29 25 20 18 18 18 22 25 39 46 49 49 43 38 33 28 27 25 26 31 35 34 33 28 21 24 28 32 36 37 30
84 79 62 49 44 38 44 47 48 47 42 36 34 34 34 35 34 36 39 41 37 32 25 19 18 19 23 30 34 41 49 46 43 46 55 50 42 38 33 29 29 33 36 35 29 30 36 44 48 51 53 55 57 58

GFSWCAN_700_rhum_054.txt.gz
RH
100 96 98 100 100 100 100 98 18 6 3 2 2 3 16 19 18 20 27 33 34 34 40 55 66 77 81 82 84 89 91 89 91 95 93 87 94 91 93 93 95 97 95 92 95 87 76 81 89 93 88 85 82 82
100 97 99 100 100 100 100 93 17 3 2 2 2 12 20 18 19 20 26 33 33 35 42 49 57 57 50 62 77 86 87 79 89 93 86 84 87 89 86 86 95 98 90 99 92 95 83 86 90 92 94 88 84 81
96 68 100 100 100 99 100 98 14 2 2 2 4 19 19 20 21 23 25 31 37 35 43 51 54 57 62 59 41 50 78 80 77 85 90 79 75 72 91 84 88 96 94 90 82 76 78 84 91 93 90 84 80 77
100 96 100 100 100 99 99 36 8 2 2 3 13 23 20 22 23 32 30 38 34 33 53 64 61 62 64 65 63 59 43 37 42 50 58 73 73 61 58 60 66 69 67 65 57 52 52 58 70 71 55 53 47 40
98 98 99 100 100 100 100 18 9 4 3 7 20 20 21 26 25 33 44 42 43 38 42 48 50 50 56 66 64 61 64 71 47 38 46 56 49 39 52 68 57 48 50 62 65 70 67 62 63 59 43 48 52 48
94 97 99 99 100 99 58 25 7 3 4 7 15 21 26 24 22 24 34 42 47 42 22 12 14 23 35 48 56 59 66 75 79 52 36 34 38 48 75 70 76 76 76 78 71 68 68 70 70 69 59 54 54 50
99 99 99 99 100 98 54 9 3 4 4 7 16 26 22 15 13 11 11 11 25 20 6 7 7 8 8 18 34 43 56 70 76 75 67 57 60 64 65 74 77 84 87 84 70 59 63 69 65 65 59 62 62 60
100 99 99 99 100 97 20 3 4 4 4 7 10 14 6 4 3 3 3 3 4 4 5 5 8 9 11 12 23 36 56 64 70 76 81 84 87 90 90 88 80 79 63 59 47 45 44 53 62 63 66 72 70 68
98 99 99 99 99 56 7 4 4 5 4 3 3 4 3 4 3 4 4 4 4 4 5 6 6 9 10 10 16 38 57 67 67 71 77 81 81 73 62 53 46 44 47 43 33 30 28 29 33 39 47 63 76 77
98 99 99 99 95 15 6 4 4 4 4 3 4 4 4 4 4 4 5 5 6 6 7 8 9 10 11 10 10 20 38 55 76 77 76 70 68 68 61 59 41 22 15 14 13 12 12 13 12 13 22 41 50 70
99 98 99 99 82 23 6 6 4 4 3 5 4 5 6 5 5 6 6 6 6 7 9 10 12 13 14 14 12 12 28 53 76 82 89 76 52 37 24 18 17 17 18 19 17 17 16 14 14 14 15 14 21 45
99 98 99 98 48 7 7 6 4 4 4 5 5 6 6 7 8 8 6 8 8 7 12 16 17 19 20 19 16 15 18 45 81 91 89 86 62 42 23 25 28 29 30 30 29 25 20 17 16 16 16 17 17 18
99 98 99 90 26 20 7 6 6 10 6 6 9 10 10 12 12 12 8 10 12 15 22 25 25 26 26 23 21 19 15 60 79 88 84 86 68 52 32 34 49 50 44 41 40 38 32 28 26 24 21 20 18 18
98 99 98 65 37 9 8 9 7 10 10 12 14 15 16 17 16 12 9 13 16 17 21 26 27 28 29 30 27 22 47 74 97 98 96 89 82 67 64 66 69 59 43 45 44 41 37 35 32 28 26 23 22 21
99 98 97 51 11 9 14 8 11 11 12 16 20 21 23 22 18 15 16 21 25 26 26 26 28 30 31 32 30 31 44 66 94 98 94 95 94 92 88 86 65 45 47 44 40 37 33 32 31 30 28 26 27 30
98 97 53 12 10 12 9 12 13 15 22 29 38 42 33 23 19 18 19 20 20 22 23 25 27 31 34 33 33 30 36 37 69 58 52 53 52 54 49 50 50 46 42 38 36 35 51 70 67 59 58 60 53 52
98 78 18 12 11 10 12 16 20 36 46 49 48 32 21 18 17 17 17 18 19 20 25 28 29 33 36 37 37 34 36 40 43 44 45 47 53 56 51 42 33 30 32 36 45 81 57 49 51 48 51 51 72 80
91 25 16 14 12 12 17 30 49 49 53 43 28 21 18 17 16 17 18 19 19 23 27 32 34 36 38 41 39 40 42 43 44 45 48 52 45 30 25 25 33 43 40 53 89 82 74 91 95 88 77 49 49 98
56 58 47 14 13 22 32 44 56 61 48 27 20 18 17 17 16 17 20 21 19 22 26 33 36 34 38 42 45 42 44 44 46 47 38 24 23 25 32 44 66 60 56 85 94 97 99 92 96 85 29 34 36 67
90 35 13 18 29 39 48 54 62 56 36 23 21 19 18 16 17 19 23 22 21 23 28 35 37 38 39 39 37 37 42 40 29 22 20 22 26 38 51 67 73 74 78 84 88 94 90 73 60 29 22 22 23 28
30 17 28 37 38 60 51 50 48 40 29 23 22 19 16 17 19 23 26 24 26 23 31 35 37 38 36 29 23 24 28 26 26 21 20 18 28 39 48 60 67 69 70 62 55 47 33 26 23 26 35 35 27 26
20 28 54 61 66 53 45 52 37 30 26 24 20 16 17 19 23 26 28 28 27 28 35 36 40 33 20 16 18 23 25 26 24 24 26 29 26 28 32 39 40 39 40 43 39 30 26 25 23 24 41 41 33 27
47 79 83 72 47 40 33 26 23 23 19 18 18 19 21 23 27 29 29 32 28 34 34 35 26 16 13 15 21 21 23 22 26 29 27 27 28 30 31 30 32 31 26 25 26 23 23 23 22 26 46 43 32 26
92 80 73 52 41 39 26 22 24 21 20 25 29 29 31 30 31 33 34 34 32 34 36 26 18 16 17 22 23 23 25 27 25 24 31 31 22 17 18 20 27 32 32 26 24 21 21 21 29 40 48 37 30 25
80 66 72 78 57 32 24 22 20 21 28 34 36 30 30 33 33 33 34 34 35 37 27 19 18 21 27 28 25 27 30 27 21 12 14 19 15 12 12 17 23 30 30 30 27 22 29 30 33 46 42 26 21 22
45 46 48 38 29 25 22 24 24 27 30 30 31 33 35 35 36 36 36 38 38 27 21 22 25 29 28 31 30 25 25 25 20 16 14 16 16 15 12 12 14 19 24 22 19 18 28 26 35 45 32 20 19 26
34 32 43 41 29 23 23 24 25 26 27 32 35 39 39 38 38 38 41 42 35 32 31 32 30 29 31 32 31 28 23 19 19 15 13 15 18 19 18 15 20 22 23 26 21 19 30 22 20 47 46 23 20 69
34 32 28 29 27 27 25 22 29 40 43 44 44 39 37 42 44 49 54 47 41 37 34 38 42 44 41 33 31 27 23 22 20 17 17 20 22 23 20 19 20 28 30 28 23 21 31 23 17 19 40 42 23 25
36 35 37 37 38 37 38 41 46 46 43 42 40 40 47 50 53 46 34 34 36 39 42 49 50 44 35 37 38 40 38 33 22 20 20 20 15 20 35 40 34 29 32 27 26 22 30 28 22 19 17 22 42 52
48 45 44 44 39 44 49 51 52 51 48 46 48 54 53 39 34 26 22 26 33 39 42 40 36 34 32 27 26 29 29 26 24 23 19 15 21 34 40 42 35 34 36 26 22 25 33 33 29 32 27 20 16 20
53 51 47 53 61 65 67 65 61 51 50 57 52 34 26 24 22 26 28 31 32 32 35 39 37 32 31 30 29 27 22 19 17 17 18 26 39 35 37 45 36 36 34 25 22 24 28 36 36 35 32 28 26 26
54 59 70 78 79 72 65 54 59 61 52 33 26 25 27 27 25 26 27 30 38 46 42 41 40 34 26 20 19 21 23 29 35 42 48 50 42 36 42 45 40 37 32 26 25 29 34 34 33 35 39 45 50 52
80 84 70 53 53 56 58 57 50 37 29 28 30 30 30 32 34 42 39 33 30 26 23 20 18 20 28 39 48 49 50 57 65 65 58 56 51 49 48 46 42 41 36 34 36 39 44 52 54 53 54 58 63 66

GFSWCAN_700_rhum_060.txt.gz
RH
28 20 23 24 91 97 99 99 100 99 99 99 99 66 3 3 13 24 28 29 28 32 41 51 55 70 77 79 80 75 84 82 81 97 95 93 91 80 82 91 92 80 81 85 86 93 81 74 77 83 89 98 86 74
27 17 19 28 96 98 100 93 99 99 99 99 96 57 3 8 23 25 30 29 31 38 38 54 66 70 72 72 72 69 76 77 74 97 81 80 81 79 82 82 80 87 79 82 84 92 89 87 83 83 80 74 71 58
25 16 19 45 95 99 97 99 98 99 99 98 94 61 6 21 25 28 32 33 32 40 44 54 64 71 74 78 74 73 67 68 68 69 72 74 72 70 86 84 88 72 69 76 68 79 80 83 80 69 61 52 52 60
23 18 20 73 97 99 99 99 99 98 99 98 88 18 20 25 26 30 32 31 33 36 40 49 50 54 55 60 64 67 78 68 69 67 67 74 76 65 68 74 71 61 60 58 70 78 71 61 62 64 66 68 70 71
17 18 21 92 97 98 97 98 98 99 99 94 71 16 28 26 30 31 36 34 35 33 32 44 50 50 54 53 51 49 49 56 58 60 59 58 59 62 57 53 50 44 44 47 48 51 65 67 64 62 64 66 62 60
16 22 48 95 96 100 86 97 98 98 94 20 14 32 30 30 31 33 38 33 42 38 32 52 49 56 53 51 50 53 54 53 52 48 41 38 37 40 38 38 38 41 48 62 66 70 76 78 50 40 37 36 34 34
18 65 79 92 92 99 99 98 98 74 18 21 32 32 30 32 29 34 36 33 43 34 17 23 34 42 42 43 45 48 52 56 58 54 52 51 47 41 38 41 51 57 59 56 62 74 67 41 38 31 17 12 12 13
79 98 93 95 98 98 98 98 96 37 15 24 36 33 35 35 39 34 35 34 18 7 5 6 7 15 16 20 25 36 43 49 49 52 48 55 60 61 60 60 62 66 67 71 74 52 45 32 16 14 14 14 15 16
100 96 98 97 97 98 95 98 74 15 13 40 40 43 43 42 40 32 21 6 6 5 5 7 8 10 11 15 20 34 38 44 44 45 52 56 64 64 65 62 60 64 64 50 47 41 17 17 16 20 25 26 26 26
94 96 97 98 98 96 98 97 45 16 35 47 52 54 53 40 32 31 12 7 7 5 5 6 7 9 10 13 15 26 27 38 38 40 53 65 62 62 65 63 63 57 58 43 22 24 26 30 28 26 28 40 48 43
96 98 97 96 98 93 98 70 18 28 54 58 57 52 40 20 30 35 12 6 6 8 7 8 9 12 13 14 15 14 15 22 35 48 51 67 58 51 57 67 64 58 40 27 25 25 31 34 39 44 57 57 41 31
97 100 94 96 97 95 75 30 17 40 59 54 51 31 20 14 6 6 6 6 6 7 9 12 14 16 17 19 19 19 17 22 46 64 62 64 49 54 61 64 59 39 31 30 32 33 35 44 63 57 39 28 19 17
100 99 97 97 96 98 87 26 25 51 52 56 45 20 14 8 7 7 6 7 8 8 10 14 18 21 22 24 24 22 21 28 41 59 62 53 48 54 67 60 46 38 36 39 45 61 69 48 36 24 16 16 21 27
99 96 97 98 96 95 42 23 46 61 62 44 17 7 7 10 10 10 8 8 9 10 15 17 18 23 24 25 26 26 31 29 35 54 44 44 46 69 82 87 88 84 73 50 40 36 25 13 13 22 25 26 44 60
96 97 97 97 97 82 26 45 59 66 49 12 7 7 13 13 12 12 12 12 13 15 16 21 19 18 21 26 27 28 30 30 32 32 32 36 40 38 40 45 47 45 38 24 15 14 18 22 30 34 41 45 65 70
97 98 97 97 93 34 43 64 67 37 16 12 15 18 16 17 22 22 18 16 19 20 17 16 16 18 21 22 25 27 27 24 24 28 33 37 38 40 45 46 39 19 13 14 15 20 24 41 49 50 53 64 69 74
96 94 96 97 44 44 70 72 45 22 18 18 21 19 20 23 29 36 46 26 17 17 20 20 19 19 20 22 22 23 22 25 28 32 35 38 39 42 39 24 13 12 14 16 21 30 42 52 57 62 60 53 48 37
95 95 98 75 33 55 76 46 30 20 21 21 22 29 38 46 39 49 37 18 22 24 24 23 24 23 22 22 24 26 29 31 32 35 38 38 33 20 13 12 12 15 17 20 25 30 35 34 30 33 42 41 36 31
93 96 93 62 48 59 71 39 24 23 26 36 51 53 46 38 36 20 20 23 24 25 26 27 25 24 25 26 27 30 34 36 36 35 28 16 12 11 10 15 19 18 18 19 20 19 19 23 24 23 23 23 22 20
97 98 86 58 55 67 47 32 30 31 42 48 50 34 34 34 20 17 20 20 21 24 27 29 30 31 29 29 28 29 32 32 26 18 13 11 10 11 19 21 20 19 17 10 9 9 9 13 22 27 28 27 25 25
97 95 88 50 76 46 32 29 40 42 41 43 46 45 44 24 17 18 16 16 19 24 29 34 34 34 34 31 30 32 31 23 16 12 11 11 12 19 23 20 13 10 8 9 10 11 11 11 14 22 26 24 22 28
97 93 54 71 53 31 31 31 41 47 51 49 52 52 47 23 17 17 16 16 20 29 34 33 34 37 36 32 33 33 25 16 13 12 13 12 13 19 19 13 8 8 10 13 15 16 15 13 13 13 17 24 24 27
91 76 88 65 39 37 44 42 53 65 76 80 61 46 23 18 17 18 17 19 29 35 32 33 38 37 32 32 32 24 17 14 14 14 14 15 17 21 19 14 12 11 11 14 17 19 20 15 16 21 18 24 26 29
94 95 71 52 54 63 62 76 83 84 82 88 63 43 23 19 20 19 18 27 36 32 32 40 38 34 33 31 23 17 16 16 17 17 19 23 22 23 24 19 17 15 16 17 20 22 22 17 22 35 26 28 30 32
95 80 71 78 92 88 81 80 85 90 87 89 59 32 25 27 26 23 23 33 33 34 40 38 35 36 34 29 22 18 19 21 23 24 26 33 32 31 30 29 27 28 26 24 25 23 20 16 26 38 29 31 32 32
92 93 91 95 89 80 84 91 93 85 88 71 44 35 38 42 32 25 31 33 35 38 38 37 38 38 32 23 19 21 28 30 34 35 35 37 37 38 35 30 27 25 27 27 25 22 17 20 36 38 30 33 36 36
95 95 94 83 80 79 86 90 84 90 64 45 44 42 30 24 28 32 33 35 38 39 40 39 37 30 20 17 18 22 27 32 37 37 37 40 38 34 34 32 30 31 30 28 25 23 26 37 40 39 35 36 37 37
91 87 87 80 85 87 91 93 89 88 69 49 39 35 29 29 30 32 33 39 42 42 40 37 28 14 12 15 20 22 25 27 28 31 36 35 34 35 36 36 36 34 33 37 41 45 50 46 46 42 36 33 33 37
90 93 94 93 90 86 85 80 70 56 48 49 51 40 30 29 37 43 46 46 45 41 36 18 11 12 14 17 18 21 27 32 36 37 37 35 32 29 28 34 47 57 61 62 68 62 52 50 49 43 36 31 28 32
89 92 95 96 95 87 77 75 82 74 56 34 28 36 42 44 45 45 45 45 40 24 13 11 12 16 18 22 28 35 39 40 37 33 28 27 35 54 70 73 75 71 65 62 64 62 59 53 52 47 40 34 33 36
92 91 94 94 93 89 86 78 66 48 40 41 45 50 50 50 48 46 40 29 16 11 13 16 20 21 23 25 24 21 18 20 22 31 50 60 62 63 63 65 69 70 70 70 68 63 58 55 49 42 44 49 53 55
73 80 80 72 72 76 74 55 48 51 54 56 54 52 50 49 43 33 21 14 13 15 19 19 20 20 18 17 14 15 19 32 49 48 46 47 52 59 67 78 81 77 74 72 70 70 69 68 68 69 68 66 64 61
85 88 87 83 76 72 71 74 72 65 60 56 55 52 48 40 23 18 15 14 16 16 15 15 16 16 13 14 24 33 39 51 52 50 50 46 57 80 89 89 90 89 89 89 86 81 76 74 74 73 70 66 64 63

GFSWCAN_700_rhum_063.txt.gz
RH
95 87 65 38 18 17 67 96 96 98 99 99 99 99 40 14 13 23 30 34 36 42 54 60 75 76 75 68 68 70 75 74 79 83 86 87 89 78 89 87 82 75 75 82 90 90 93 80 83 86 84 87 93 94
88 83 53 37 16 18 71 96 98 97 98 98 99 98 24 12 21 30 34 34 36 53 49 61 76 81 81 76 71 63 63 68 77 86 79 76 79 80 83 84 87 86 81 85 78 87 88 87 86 82 79 79 71 63
52 67 36 25 16 21 53 96 98 90 97 97 99 98 32 16 28 35 38 36 39 46 51 66 79 80 81 83 81 72 68 70 69 69 69 69 67 68 76 80 77 74 72 78 75 85 77 66 75 71 59 59 65 66
36 58 29 16 18 39 55 90 97 98 97 98 98 98 18 27 42 42 41 39 44 45 61 66 68 74 72 79 81 79 74 65 71 71 70 67 62 59 62 62 61 62 60 58 66 68 68 62 55 66 60 59 66 62
50 44 26 16 48 66 89 97 97 98 98 98 99 77 19 40 45 45 44 40 42 43 42 61 60 71 72 71 68 67 71 67 64 66 65 63 63 62 58 56 51 49 50 50 51 44 49 61 68 67 47 40 36 30
49 28 17 18 78 95 96 94 97 98 98 99 76 21 39 49 48 49 46 44 45 51 46 50 47 52 54 54 52 55 57 61 59 56 54 53 49 47 41 40 37 38 39 37 43 54 66 67 76 73 45 34 19 13
31 24 16 22 84 91 96 91 98 98 97 98 49 36 41 46 46 44 40 36 43 46 41 41 51 53 52 52 50 49 50 46 47 49 49 46 46 45 41 39 40 47 54 58 67 62 69 77 53 38 29 17 14 16
23 16 18 31 71 93 95 97 98 98 74 22 38 41 47 46 47 44 37 43 47 43 23 20 37 47 46 44 45 46 47 48 50 52 52 52 51 49 50 46 49 53 60 66 73 75 77 47 34 21 18 20 25 28
17 21 51 55 75 92 96 97 98 93 32 41 37 42 46 48 53 45 43 48 34 6 5 5 13 22 26 31 36 39 43 46 42 45 52 52 54 55 54 54 58 64 68 74 72 59 47 38 24 19 23 30 29 28
35 100 100 66 87 98 97 97 76 93 50 50 46 45 56 56 48 50 52 18 6 5 5 4 6 7 12 16 21 25 26 35 34 40 46 59 52 50 56 65 67 66 71 59 54 53 41 27 22 25 30 30 38 45
93 100 100 98 97 97 98 95 95 59 65 80 50 58 56 49 47 31 10 8 5 5 5 6 7 9 12 14 14 18 17 21 27 42 43 46 49 42 56 66 77 74 63 61 55 44 31 27 30 40 53 43 24 16
96 100 97 93 95 97 98 92 36 44 69 48 61 55 46 47 38 19 10 6 5 7 5 7 10 13 14 16 18 19 19 23 36 39 42 39 32 39 55 63 65 69 66 56 44 37 47 63 59 37 22 12 13 22
95 98 96 96 97 97 97 73 37 70 54 64 63 52 45 16 9 6 4 5 6 6 7 9 13 16 20 22 23 22 21 23 31 37 33 31 31 35 40 54 67 69 69 71 71 59 43 32 14 11 13 20 27 37
98 100 96 97 97 98 98 37 73 60 68 66 51 24 8 6 6 5 4 4 6 7 9 14 18 20 23 23 24 25 27 26 26 25 24 23 22 29 38 46 50 51 43 42 36 16 9 9 13 19 30 42 47 51
100 99 96 97 97 98 61 53 67 67 66 36 14 11 7 11 10 7 13 8 9 10 14 15 21 20 19 22 23 24 26 26 25 22 23 25 30 32 37 41 43 43 35 16 10 10 13 16 18 24 38 46 57 56
100 97 98 97 97 89 39 61 77 62 30 17 9 5 12 14 14 11 12 12 13 14 18 18 17 17 18 19 20 20 21 21 22 23 27 30 33 37 40 41 37 21 12 10 11 14 16 19 20 19 19 22 22 26
96 92 96 97 97 69 47 78 73 37 19 12 14 9 13 20 32 32 22 24 22 18 16 19 18 18 19 19 19 20 21 23 25 28 31 33 36 37 36 23 13 11 11 13 14 16 17 13 10 11 13 17 23 27
94 97 97 98 94 50 51 87 63 37 23 13 16 14 19 32 37 42 46 50 24 20 23 23 23 22 21 21 23 24 24 24 25 28 32 34 33 25 15 11 10 11 14 16 17 12 9 9 10 10 10 11 14 20
94 95 98 96 70 50 89 63 35 26 19 14 16 27 43 36 38 40 37 21 23 24 25 26 25 29 30 30 30 29 27 27 28 29 29 24 17 13 11 9 11 16 18 19 13 9 10 14 14 13 12 11 11 12
97 99 99 74 72 74 54 35 25 19 20 20 32 47 37 36 38 31 20 23 22 24 26 29 32 31 34 34 34 32 29 29 30 28 21 15 12 11 11 12 20 24 22 14 11 11 11 14 18 18 16 14 12 18
97 97 96 85 79 56 42 32 27 22 29 47 48 36 31 32 26 18 20 19 20 24 30 32 31 35 35 33 32 30 29 30 27 21 15 12 12 12 14 19 28 26 22 15 12 10 12 14 16 20 20 16 14 24
96 96 91 87 61 47 34 30 27 34 50 47 34 43 30 20 18 18 18 17 18 25 34 31 32 38 35 33 32 31 31 28 21 15 14 14 15 18 19 22 25 24 22 20 19 16 15 17 20 23 23 16 14 24
96 96 92 74 49 38 34 30 33 43 35 35 56 57 32 26 22 20 17 17 19 32 36 33 35 37 34 34 34 33 31 25 18 15 16 18 21 23 25 28 34 36 32 28 29 28 28 27 28 28 22 15 14 23
98 96 91 68 44 41 31 35 40 38 34 48 72 64 56 49 35 19 18 19 19 30 35 34 37 35 35 37 36 34 28 19 16 15 21 25 26 30 35 37 39 42 44 44 42 36 33 31 31 26 20 17 24 28
96 95 95 85 58 48 45 43 47 51 57 77 88 73 68 50 21 19 19 22 24 29 34 34 35 36 38 38 36 27 16 13 14 14 23 31 34 38 42 45 42 36 36 34 34 34 34 32 30 28 28 31 35 32
90 92 91 91 67 63 61 66 67 64 68 88 91 89 68 41 25 23 28 33 32 32 33 33 38 40 40 37 24 12 10 13 17 19 25 31 36 37 38 38 36 35 34 32 30 30 32 42 49 51 50 48 45 39
94 96 90 81 70 70 69 71 69 74 85 92 87 93 83 40 34 37 41 37 32 32 35 41 40 40 38 22 11 9 9 10 13 18 26 34 41 43 42 39 34 37 44 58 68 75 71 68 66 62 51 46 48 40
95 88 82 76 73 72 68 77 90 95 89 85 87 90 64 49 43 30 30 30 33 42 40 38 40 36 19 10 9 10 12 18 23 29 33 31 27 24 30 53 66 70 74 84 88 80 73 67 57 50 42 40 41 41
80 80 81 76 74 71 80 88 93 84 82 87 59 51 43 39 37 33 33 42 43 39 41 42 31 15 9 10 13 16 19 20 18 15 14 16 30 42 38 40 48 55 63 72 78 75 69 66 57 47 42 38 38 35
77 76 75 74 70 85 88 89 91 92 94 81 58 55 59 48 38 42 46 46 41 41 37 23 12 10 13 15 17 17 15 13 11 16 28 38 41 38 34 46 65 72 77 79 80 74 69 66 63 60 56 50 45 45
90 92 95 94 95 94 93 95 95 94 86 81 73 47 40 46 47 47 44 43 43 33 18 11 11 13 14 13 11 10 9 16 25 32 42 50 46 40 38 56 69 75 78 84 86 86 85 82 78 76 73 70 66 63
95 95 94 93 94 95 96 96 96 83 49 38 43 50 54 52 48 47 45 41 28 16 12 12 12 10 8 7 8 16 24 28 33 36 40 46 45 38 37 55 71 78 84 87 84 76 70 70 71 72 71 69 66 63
95 95 96 96 96 95 96 93 89 66 58 60 75 79 57 49 48 45 38 23 14 13 10 6 6 7 9 14 21 27 30 33 34 36 33 37 37 37 56 70 78 84 86 78 73 72 72 73 74 76 77 78 78 78

GFSWCAN_700_rhum_066.txt.gz
RH
92 90 90 79 76 42 19 52 65 96 92 96 97 98 98 71 24 33 35 41 61 60 72 91 91 90 83 80 70 69 78 87 89 87 86 85 86 87 81 78 75 72 75 82 86 87 85 73 79 82 74 73 72 78
94 88 88 72 60 22 17 88 79 93 93 96 97 98 99 27 28 27 37 42 57 70 74 80 89 94 82 78 78 66 63 64 72 82 75 74 78 80 80 85 82 76 70 75 72 70 69 71 76 82 82 75 64 57
90 88 67 40 45 17 17 45 92 92 96 95 97 98 92 25 23 24 40 43 50 80 66 87 91 87 81 83 78 74 68 68 66 64 73 77 71 70 75 78 77 78 77 80 72 66 72 78 78 73 61 52 59 58
72 73 32 49 34 14 18 28 50 85 97 96 98 97 26 19 19 31 43 46 50 61 72 82 86 88 82 78 82 76 76 76 75 72 72 69 63 59 72 65 67 70 69 69 71 61 57 60 66 54 64 59 51 45
65 38 30 42 16 29 73 45 52 81 96 97 98 73 26 19 34 47 50 48 55 62 57 72 70 76 79 72 75 76 75 71 69 73 71 67 66 67 61 63 63 60 66 67 65 60 58 50 52 67 73 72 50 34
56 26 39 20 36 100 72 84 81 91 96 97 97 67 23 34 48 53 54 52 62 64 57 80 65 72 70 68 70 72 71 71 71 68 69 68 61 61 54 50 47 49 49 50 46 42 46 53 71 74 78 54 34 24
36 31 33 16 89 100 89 94 96 97 97 98 98 48 29 45 50 52 48 42 52 62 66 58 63 67 61 58 59 61 61 65 69 69 60 49 45 47 43 41 41 42 47 53 56 58 66 67 69 70 60 38 25 20
29 28 27 17 93 100 86 93 94 93 98 98 88 40 39 45 56 50 43 46 51 58 51 41 48 50 49 47 50 50 49 49 47 45 46 47 46 46 44 41 45 47 53 59 64 67 72 79 75 56 39 29 24 26
26 24 18 18 95 94 92 97 96 96 97 96 49 48 44 55 51 45 47 51 50 29 12 11 34 46 41 43 48 45 48 48 47 45 49 46 45 46 44 47 54 58 59 60 69 76 73 58 49 46 32 28 28 30
25 21 14 21 95 87 92 96 96 96 100 83 47 49 56 49 54 48 58 49 19 6 5 8 19 23 28 30 35 38 37 41 40 38 36 45 36 33 45 50 53 60 63 65 68 63 58 58 54 38 31 30 42 48
23 16 16 56 81 95 97 98 86 64 53 53 52 48 51 59 58 50 40 20 7 4 5 8 8 8 18 18 18 21 20 21 22 31 37 38 29 32 36 39 48 55 65 73 68 63 59 47 42 49 53 40 19 11
20 39 98 100 96 97 98 93 50 51 52 49 44 47 51 50 38 22 15 8 5 4 4 5 6 9 11 14 16 16 18 20 26 31 33 28 25 21 25 29 36 47 58 61 59 56 58 58 45 32 14 9 10 10
32 98 100 99 97 98 100 66 55 54 48 46 61 58 53 38 31 16 9 5 5 4 4 5 7 11 14 17 20 21 22 21 26 30 28 23 19 19 20 23 29 40 48 55 53 46 43 29 11 9 10 11 11 18
96 99 100 98 96 98 96 92 80 96 75 66 50 46 32 16 12 5 4 3 4 4 4 6 10 15 17 20 23 22 24 25 23 23 21 20 20 22 25 27 30 36 40 42 43 26 11 9 11 13 16 17 17 17
96 99 100 96 96 97 96 65 95 95 66 57 41 30 10 6 5 4 3 3 6 6 7 10 15 18 21 20 21 21 24 24 24 22 20 20 22 24 26 29 33 38 39 30 14 9 11 13 14 13 11 9 8 10
97 99 97 97 96 98 63 87 96 76 54 32 19 15 7 8 5 5 5 7 7 8 12 15 19 18 16 17 20 19 19 19 19 19 20 21 24 26 29 33 34 29 19 13 10 12 15 16 11 7 8 8 9 10
95 96 96 97 96 94 70 96 94 59 42 16 9 7 13 9 11 14 10 10 11 14 16 17 17 17 18 18 18 18 20 21 22 22 23 24 25 28 28 27 20 14 12 12 14 17 18 17 9 10 10 11 13 14
94 97 96 96 96 95 95 95 74 44 34 24 6 12 13 23 28 33 33 35 36 23 18 20 20 19 20 20 23 25 26 26 26 26 27 27 27 25 21 15 12 11 11 15 19 20 20 14 10 11 14 17 16 18
95 95 97 97 92 88 96 93 59 39 29 13 10 14 27 33 33 38 42 36 20 22 23 24 23 27 28 29 30 30 30 28 27 28 28 26 23 18 13 11 11 12 13 18 23 25 25 17 13 14 15 16 16 20
96 97 97 98 90 100 94 82 47 32 22 13 15 25 34 38 39 37 29 22 24 25 27 27 29 30 30 29 29 29 29 28 28 28 26 22 18 13 12 12 14 16 18 23 31 32 28 23 22 22 20 20 22 26
98 98 97 95 97 95 80 65 48 37 18 15 21 39 38 36 33 30 22 23 23 26 30 30 32 33 31 28 30 31 31 29 29 27 24 18 14 13 13 16 19 22 27 29 36 35 36 36 33 32 32 32 30 30
96 96 94 96 92 74 57 60 38 33 17 20 39 38 35 29 28 22 22 21 22 29 32 31 33 32 26 26 31 34 34 32 30 25 18 13 12 14 16 20 26 30 33 38 42 43 45 50 50 46 39 34 33 29
97 97 96 94 73 52 43 43 25 22 25 31 42 36 27 23 21 21 21 18 19 26 34 35 34 33 30 29 35 37 36 33 27 17 11 9 9 11 16 23 32 34 37 45 44 40 38 38 38 39 40 41 40 40
97 96 95 84 60 43 38 36 33 35 39 42 36 26 30 25 22 22 20 18 18 24 32 35 34 32 29 35 37 37 36 30 18 9 7 6 7 11 17 22 29 36 40 40 38 40 43 46 49 55 65 68 72 70
96 94 96 87 54 40 40 35 38 42 45 36 41 51 54 58 34 22 22 21 18 20 23 31 34 30 34 37 35 36 32 17 9 7 7 8 12 17 23 30 26 21 21 28 41 48 60 72 81 77 71 70 70 63
93 93 88 78 56 42 41 36 37 43 41 58 77 68 63 75 89 54 49 30 20 23 27 32 32 33 37 34 35 34 18 9 7 8 12 15 17 15 12 12 22 30 32 35 41 47 54 61 66 65 66 70 66 57
92 88 83 69 57 44 43 42 39 40 47 75 87 87 81 87 84 62 38 30 29 33 34 32 35 36 36 38 34 17 9 8 8 11 12 10 9 12 21 31 35 32 35 56 67 76 80 77 69 64 62 62 60 50
95 88 73 65 58 45 45 57 54 55 64 75 82 81 84 85 71 47 42 40 38 33 32 37 38 37 38 34 19 10 9 8 9 9 7 11 19 27 35 41 37 36 63 74 75 79 77 73 64 57 53 48 48 45
85 77 78 68 65 65 55 56 66 58 52 66 82 86 84 80 69 48 39 31 32 35 40 42 39 38 34 20 11 9 7 6 5 8 17 21 27 33 40 41 34 41 59 73 77 73 71 73 75 72 69 63 60 52
78 69 80 74 69 73 77 67 70 84 88 94 95 88 78 55 46 45 41 37 40 44 43 41 40 35 18 11 9 5 4 5 12 18 23 25 27 28 33 36 34 46 63 72 71 71 67 65 64 64 64 65 67 67
78 76 78 76 83 90 88 89 91 92 95 96 96 84 59 61 68 61 46 45 45 43 42 42 30 15 12 8 4 4 8 14 20 25 28 30 29 29 36 36 52 64 70 70 67 65 64 63 63 64 65 68 70 69
92 92 91 89 91 93 95 96 96 96 95 96 80 64 63 60 46 48 48 48 45 43 38 24 14 11 6 4 5 10 15 19 25 30 31 33 34 36 38 56 62 69 71 68 67 68 68 70 68 68 68 70 74 76
94 92 94 96 96 96 96 96 96 96 94 85 87 74 52 50 60 57 54 48 46 38 20 15 9 4 4 5 9 13 17 24 32 32 32 36 38 38 54 65 71 74 71 69 70 70 72 71 71 71 70 71 74 77